Temperature
21 20 20 19 19 19 19 19 18 18 18 18 18 17 17 17 17 17 16 16 16 15 15 15 15 15 15 15 15 15 14 15 15 15 15 16 17 17 17 17 17 17 17
21 20 20 20 19 19 19 19 18 18 18 18 18 18 17 17 17 16 16 15 15 15 15 14 14 14 14 14 14 14 14 14 14 15 15 15 16 17 17 17 17 17 17
21 20 20 20 19 19 19 19 18 18 18 18 17 17 17 17 17 16 16 15 15 14 14 14 14 13 13 13 14 14 14 13 14 14 14 15 16 16 17 17 17 17 17
22 21 21 20 20 19 19 19 18 18 18 17 17 17 16 16 16 16 16 15 15 14 14 13 13 13 13 13 13 13 13 13 13 14 14 14 15 15 15 16 16 16 17
22 22 21 21 20 20 20 19 18 18 18 17 17 16 16 16 16 15 15 15 14 14 14 13 13 13 13 12 13 13 13 13 13 13 13 14 14 14 14 14 15 16 16
23 23 22 21 21 20 20 19 19 18 18 17 16 16 16 15 15 15 15 14 14 14 14 14 13 13 12 12 12 12 12 12 12 12 12 13 13 14 14 14 15 15 16
24 23 23 22 21 21 20 20 19 18 17 17 16 16 15 15 15 14 14 14 14 14 14 13 13 13 12 12 12 12 12 12 12 12 12 12 12 13 13 14 14 14 15
24 24 23 22 22 21 21 20 19 18 17 16 16 15 15 14 14 14 14 14 13 13 13 13 12 12 12 11 11 11 11 11 12 12 12 12 12 12 13 13 13 13 14
25 24 23 23 22 21 21 20 19 18 17 16 16 15 15 14 14 14 13 13 13 13 13 12 12 12 12 11 11 11 11 11 11 11 11 11 12 12 12 12 13 13 13
25 25 24 23 22 21 20 19 18 17 17 16 15 15 15 14 13 13 13 12 12 12 12 12 12 12 11 11 11 11 11 11 11 11 11 11 11 12 12 12 12 12 13
26 25 24 23 22 21 20 19 18 17 16 16 15 15 14 13 13 13 13 12 12 12 12 12 12 11 11 11 11 11 11 11 11 11 11 11 11 11 11 11 12 12 12
26 25 24 22 21 21 20 19 18 17 16 16 15 14 14 13 13 13 13 12 12 12 12 12 11 11 11 11 11 11 11 11 11 11 11 11 11 11 11 11 11 11 11
26 25 23 22 21 20 20 19 18 17 17 16 15 15 14 13 13 13 12 12 12 12 12 11 11 11 11 11 11 11 11 11 10 10 10 11 11 11 11 11 11 11 11
25 24 23 22 21 20 19 18 18 17 17 16 15 15 14 13 13 13 12 12 12 12 12 11 11 11 11 11 11 11 10 10 10 10 10 10 10 10 10 10 10 11 11
25 24 23 21 21 20 19 18 18 17 16 16 15 15 14 14 13 13 12 12 12 12 12 11 11 11 11 11 11 11 10 10 10 10 10 10 10 10 10 10 10 10 10
25 24 22 21 20 20 19 18 17 17 16 15 15 15 14 14 13 13 13 12 12 12 12 11 11 11 11 11 11 10 10 10 10 10 10 9 9 10 10 10 10 10 10
25 24 22 21 20 20 19 18 17 17 16 15 15 15 14 14 13 13 13 12 12 12 12 12 11 11 11 11 10 10 10 10 10 9 9 9 9 9 10 10 9 10 10
25 24 23 22 20 20 19 18 17 17 16 16 15 15 14 14 14 13 13 12 12 12 12 12 11 11 11 10 10 10 10 10 10 9 9 9 9 9 9 9 9 9 9
24 24 23 22 21 20 19 18 17 17 16 16 16 15 15 14 14 13 13 13 12 12 12 11 11 11 11 11 10 10 9 9 9 9 9 9 9 9 9 9 9 9 9
24 23 22 22 21 20 19 18 18 17 17 16 16 15 15 15 14 14 13 13 12 12 12 11 11 11 11 11 10 10 10 9 9 9 9 9 9 9 9 8 8 8 8
24 23 22 22 21 20 19 18 18 17 17 16 16 15 15 15 14 14 13 13 12 12 12 12 12 11 11 11 11 10 10 9 9 9 9 9 9 9 8 8 8 8 8
23 22 22 21 20 20 19 18 18 17 17 16 16 15 15 15 14 13 13 13 12 12 12 12 12 12 12 11 11 10 10 9 9 9 9 8 8 8 8 8 8 8 8
22 22 21 21 20 19 19 18 17 17 16 16 16 15 15 15 14 13 13 12 12 12 12 12 12 12 12 11 11 10 10 9 9 9 8 8 8 8 8 8 8 8 7
21 21 20 20 19 18 18 18 17 16 16 16 15 15 15 14 14 13 13 13 12 12 12 12 12 12 11 11 11 10 9 9 8 8 8 8 8 8 8 8 8 8 8
20 20 20 19 18 18 17 17 16 16 16 15 15 15 14 14 14 14 13 13 13 13 13 12 12 11 11 11 10 10 9 9 8 8 8 8 8 8 8 8 8 8 8
19 18 18 18 18 17 17 16 16 15 15 15 15 14 14 14 14 14 14 14 14 13 13 13 12 12 11 11 10 10 10 9 9 8 8 8 8 8 8 8 8 8 8
Wind_Speed
11 10 10 10 10 9 8 7 6 5 3 2 1 1 1 0 1 3 5 3 3 4 4 3 3 3 3 3 5 4 5 5 4 4 6 6 8 7 7 6 5 6 8
11 9 9 9 10 9 8 6 6 6 3 3 1 0 1 1 0 2 3 3 2 2 4 3 4 4 4 4 4 3 3 5 5 4 5 5 6 4 5 4 6 6 3
13 12 10 9 10 10 9 8 7 6 3 3 1 1 0 2 1 1 1 2 1 2 3 3 3 4 5 4 4 3 4 4 5 5 4 4 4 5 4 4 3 2 2
13 13 12 11 10 10 10 8 7 6 4 2 1 2 2 2 1 1 1 1 2 3 3 3 3 3 4 6 6 4 4 5 5 5 4 5 5 4 5 5 5 3 4
13 12 13 11 11 11 10 9 8 6 5 3 2 2 3 3 3 3 3 2 3 4 4 3 1 2 4 5 5 6 5 5 6 5 5 6 5 5 5 6 6 5 4
13 13 12 11 10 9 9 9 9 7 5 4 3 2 2 3 4 5 4 3 3 3 2 1 1 2 3 5 5 5 6 5 6 5 6 6 6 5 5 6 6 6 4
13 12 11 11 10 9 9 8 9 8 6 5 3 1 1 3 5 5 4 3 4 3 3 3 2 3 4 5 5 6 6 6 7 6 6 6 6 6 5 5 6 6 5
12 12 11 10 9 9 8 8 9 7 6 5 3 1 1 3 3 4 4 5 4 4 3 3 3 4 5 6 5 5 7 6 6 8 7 5 6 6 6 5 6 6 7
14 14 13 11 10 8 7 7 8 6 4 3 3 3 3 3 3 3 4 4 4 5 6 6 6 5 5 6 6 6 7 7 7 7 7 6 6 6 6 5 5 6 7
14 13 12 10 9 8 8 7 7 5 3 3 4 3 2 2 3 4 4 4 5 5 6 6 7 7 6 6 6 6 7 7 7 7 8 7 6 6 6 6 6 6 7
13 12 11 10 10 9 9 8 7 6 5 5 4 1 2 3 3 4 5 5 4 5 6 7 7 7 7 7 6 7 8 8 8 8 8 8 8 6 6 6 6 6 6
11 12 12 11 10 9 9 9 8 7 6 6 4 4 3 4 4 5 5 4 5 5 6 6 7 8 8 7 7 8 8 8 8 8 8 8 8 8 7 7 7 7 7
10 11 12 11 10 8 7 7 6 6 6 5 5 5 4 4 4 5 5 5 5 6 6 7 7 7 8 8 7 7 8 8 8 8 8 8 8 9 7 7 7 7 8
9 10 11 10 9 8 7 6 5 5 5 4 4 4 4 4 4 5 5 5 5 6 7 7 7 7 8 8 7 7 8 8 8 8 8 9 9 9 8 8 8 8 8
10 10 11 10 9 8 7 6 5 5 3 3 3 4 4 4 4 5 5 5 6 8 7 7 7 7 8 8 5 5 8 7 8 8 9 10 11 11 9 10 7 7 6
10 11 11 10 10 9 8 7 6 6 6 5 5 4 3 4 5 5 6 6 6 6 6 7 7 8 9 3 2 4 7 8 9 9 9 10 12 13 15 16 15 12 10
9 10 11 10 10 9 8 7 7 6 6 6 5 5 5 5 5 6 6 6 6 6 7 7 7 8 8 8 7 8 6 9 9 10 10 12 13 11 8 10 13 14 17
8 9 10 11 11 10 10 8 8 8 7 7 7 6 5 5 5 5 6 6 6 6 7 7 8 8 9 8 9 10 8 9 10 11 11 11 11 12 9 9 9 9 10
6 7 9 11 11 11 11 10 8 8 8 8 7 6 5 5 5 5 6 6 6 6 7 8 8 8 8 8 9 10 7 9 11 11 11 10 10 11 10 8 9 9 9
7 8 9 9 10 11 11 10 9 8 8 7 6 5 5 5 6 6 6 7 6 7 8 8 8 8 9 9 11 11 7 9 9 9 9 11 11 9 8 8 8 10 9
7 8 8 8 9 10 10 9 9 8 7 6 5 5 5 6 7 8 7 7 7 8 9 9 9 10 11 10 12 14 8 8 9 9 8 6 5 7 8 8 8 10 9
7 8 7 7 8 9 9 9 8 7 5 5 5 5 5 7 8 6 6 7 8 9 10 10 11 9 8 8 10 15 15 12 9 9 9 5 4 6 8 8 11 12 9
5 6 6 6 7 7 8 8 7 5 5 5 6 5 6 6 7 7 9 8 9 10 9 8 7 6 4 4 9 12 15 15 10 10 12 12 13 12 11 15 16 12 9
1 4 6 6 6 6 6 6 5 5 5 6 5 6 7 8 9 9 9 9 8 8 7 6 6 6 5 4 2 3 6 10 11 10 11 14 17 15 14 12 10 9 10
4 2 2 3 5 6 6 6 5 5 5 6 6 7 9 10 9 9 9 10 9 9 8 7 7 7 7 4 2 4 6 6 5 6 8 10 10 8 8 9 9 8 8
7 5 3 1 1 3 5 4 4 4 5 6 7 8 8 8 9 8 9 14 15 15 16 16 13 9 10 9 9 9 9 9 6 5 9 10 10 10 9 8 7 8 9
Wind_Direction
130 129 131 129 128 127 126 128 128 133 148 135 142 146 130 98 121 131 115 96 42 22 331 333 350 316 321 352 336 331 317 297 275 278 285 276 263 249 233 226 230 236 241
136 141 144 142 140 140 137 141 149 155 165 125 87 111 22 298 228 76 125 121 74 349 321 19 332 341 343 307 286 294 298 300 306 298 297 296 289 284 257 226 220 227 239
155 158 158 154 152 153 160 166 160 153 157 128 198 293 39 294 325 63 140 104 25 316 338 332 324 334 312 317 343 308 296 300 306 295 286 294 301 326 314 317 276 215 211
161 164 165 167 167 168 173 160 155 153 155 168 251 287 278 292 312 326 47 57 311 280 277 285 304 326 322 319 312 359 342 315 303 299 290 279 295 298 307 312 304 273 238
170 173 173 174 178 178 173 164 159 160 166 187 230 279 308 333 355 8 353 325 278 259 244 232 250 314 300 310 327 323 315 309 302 307 311 309 301 271 265 285 296 294 269
174 173 174 173 181 181 175 168 160 160 167 196 226 239 303 334 327 318 303 293 291 282 277 249 113 293 299 315 315 307 295 287 294 300 298 297 294 289 280 279 286 284 279
175 172 177 177 181 184 181 168 154 162 180 196 209 226 288 296 271 266 292 315 312 323 35 26 8 315 306 296 286 286 283 283 284 283 278 282 291 293 288 287 290 294 291
173 176 176 179 186 185 175 158 152 165 180 189 176 181 254 278 307 7 350 326 316 329 356 331 301 289 288 290 295 294 283 276 273 273 272 275 279 283 286 281 285 291 293
180 181 181 184 181 170 158 154 146 156 172 181 155 200 223 258 311 326 290 292 330 318 338 337 316 298 287 282 283 277 281 284 279 275 275 266 268 272 272 275 272 272 280
184 182 176 173 155 147 140 139 138 148 166 201 211 224 195 234 257 273 300 310 301 296 300 297 297 295 289 281 275 275 274 276 273 264 262 267 266 273 278 274 271 267 269
184 173 158 148 142 145 144 144 151 163 182 208 203 241 260 271 277 270 270 276 282 292 290 286 287 288 286 281 274 273 272 274 274 276 273 268 264 264 272 279 276 270 269
174 160 150 143 150 158 160 162 167 177 187 195 188 203 226 246 262 273 279 285 282 280 282 285 288 288 288 288 284 283 284 280 279 277 276 276 274 266 259 262 269 271 269
164 153 146 150 159 164 165 168 177 186 191 187 186 201 216 236 249 266 273 278 281 281 283 286 286 287 289 287 283 280 279 279 279 279 278 276 273 272 266 261 262 268 273
156 153 147 154 161 162 160 171 188 192 193 189 200 212 222 240 255 265 269 272 276 278 276 277 280 284 285 283 280 281 280 280 280 279 277 275 270 267 268 267 259 261 264
163 160 159 160 162 164 166 180 188 181 185 198 227 232 231 240 250 257 262 267 271 279 282 288 288 285 282 281 291 290 290 296 297 291 283 277 275 270 263 265 264 272 273
173 170 167 165 167 172 178 184 185 179 177 200 231 239 236 249 254 258 257 261 265 274 279 282 285 285 289 302 290 281 297 295 290 287 284 283 275 265 250 247 249 250 256
180 175 172 170 170 176 177 180 181 183 187 199 222 234 235 247 255 268 275 277 280 283 282 280 280 281 283 268 248 244 268 281 280 279 280 282 282 293 284 263 251 249 248
184 173 173 170 172 174 175 180 188 188 195 204 217 226 232 245 253 259 266 269 275 278 279 279 279 279 280 264 244 238 252 271 272 270 269 269 272 278 280 284 277 266 257
170 165 175 179 173 174 175 178 194 196 202 211 215 224 232 246 256 262 266 270 272 274 274 277 275 274 273 256 239 229 261 269 272 271 271 269 268 265 258 261 268 271 270
161 166 179 173 166 173 173 177 193 203 210 216 216 222 227 240 253 261 263 267 268 271 275 276 276 276 276 260 234 219 252 271 278 280 274 269 265 262 247 251 262 268 271
165 169 176 171 170 170 169 181 198 207 210 213 214 220 226 235 244 247 248 252 261 268 272 275 274 269 263 252 231 219 236 260 277 286 291 294 293 259 247 248 257 263 275
175 177 176 172 167 168 173 188 205 208 207 212 222 228 231 249 260 253 254 254 258 265 267 267 268 264 254 242 231 219 223 241 263 275 282 290 292 271 258 252 254 260 267
173 173 172 168 165 171 179 197 202 201 210 220 230 238 245 247 254 260 262 259 254 258 264 271 278 282 275 246 232 223 227 234 244 265 278 286 278 269 259 250 249 251 250
152 163 162 172 176 177 185 194 190 193 210 226 235 243 247 249 247 245 253 259 261 263 266 275 284 292 291 283 244 226 240 241 247 261 275 274 265 256 255 262 249 236 238
30 55 146 176 182 178 184 187 187 198 218 231 240 249 254 255 252 249 246 249 251 254 256 265 271 279 283 280 214 265 286 294 310 310 289 282 277 266 253 247 243 240 233
25 26 21 353 224 187 186 188 190 204 228 243 248 256 260 261 261 258 258 244 239 243 233 233 243 257 258 260 252 254 258 263 269 277 274 275 275 273 271 265 258 247 240
Height
1516 1519 1522 1525 1527 1529 1532 1534 1536 1538 1540 1541 1542 1543 1544 1545 1545 1545 1544 1544 1543 1543 1542 1542 1541 1541 1541 1541 1541 1540 1540 1540 1540 1540 1540 1539 1538 1538 1538 1538 1539 1539 1540
1516 1520 1523 1526 1528 1530 1532 1534 1536 1538 1540 1541 1542 1543 1544 1544 1544 1544 1543 1542 1542 1541 1541 1540 1539 1539 1539 1539 1538 1538 1537 1537 1538 1538 1537 1536 1536 1534 1534 1534 1534 1535 1536
1515 1519 1522 1525 1528 1530 1532 1535 1536 1538 1539 1540 1541 1542 1542 1543 1543 1542 1542 1541 1540 1540 1539 1538 1537 1537 1537 1537 1536 1536 1535 1535 1535 1535 1536 1535 1533 1532 1531 1531 1532 1532 1532
1514 1518 1521 1524 1527 1529 1531 1534 1535 1536 1537 1538 1539 1540 1541 1541 1541 1540 1540 1539 1538 1538 1537 1536 1536 1535 1534 1534 1534 1534 1532 1532 1532 1533 1533 1533 1533 1532 1530 1529 1529 1529 1529
1513 1517 1520 1523 1526 1528 1530 1532 1533 1534 1536 1536 1537 1537 1538 1538 1538 1537 1537 1536 1536 1536 1535 1534 1533 1532 1532 1532 1531 1530 1530 1530 1530 1530 1530 1529 1529 1529 1529 1527 1527 1526 1526
1511 1515 1518 1522 1525 1527 1529 1530 1531 1532 1534 1534 1535 1535 1535 1535 1535 1535 1535 1534 1534 1534 1534 1532 1531 1530 1529 1529 1528 1527 1527 1527 1526 1526 1526 1526 1526 1526 1526 1525 1524 1523 1523
1509 1513 1517 1520 1523 1525 1527 1529 1529 1530 1532 1532 1533 1533 1533 1532 1532 1532 1533 1532 1532 1532 1531 1530 1529 1528 1527 1526 1525 1524 1524 1523 1523 1522 1522 1522 1522 1523 1523 1522 1521 1520 1519
1506 1511 1515 1518 1521 1523 1525 1527 1527 1528 1529 1530 1530 1530 1530 1530 1531 1530 1530 1530 1529 1529 1528 1527 1526 1525 1523 1523 1522 1521 1520 1520 1519 1519 1519 1518 1518 1519 1519 1519 1518 1517 1516
1504 1508 1512 1515 1518 1521 1523 1524 1525 1527 1528 1528 1528 1528 1528 1528 1527 1527 1527 1527 1526 1526 1525 1524 1523 1521 1520 1519 1518 1517 1517 1516 1515 1515 1515 1514 1514 1514 1514 1514 1515 1515 1513
1500 1504 1508 1512 1515 1518 1520 1522 1523 1524 1525 1526 1526 1527 1526 1525 1525 1524 1524 1524 1523 1522 1521 1520 1519 1518 1517 1516 1515 1513 1513 1512 1511 1511 1510 1510 1510 1509 1510 1510 1510 1510 1509
1497 1501 1505 1509 1513 1516 1518 1520 1521 1522 1523 1523 1523 1524 1523 1523 1523 1522 1522 1521 1520 1519 1518 1517 1516 1514 1513 1512 1511 1510 1509 1508 1507 1506 1506 1505 1505 1504 1504 1505 1504 1504 1504
1494 1498 1502 1506 1511 1514 1516 1518 1519 1520 1520 1521 1521 1521 1520 1520 1519 1519 1519 1518 1517 1515 1514 1513 1512 1511 1510 1509 1507 1506 1505 1504 1503 1502 1501 1500 1500 1499 1499 1499 1499 1499 1499
1492 1496 1500 1504 1508 1512 1514 1516 1517 1518 1518 1518 1518 1518 1518 1517 1517 1516 1515 1514 1513 1512 1511 1510 1508 1507 1506 1504 1503 1502 1500 1499 1498 1497 1496 1495 1495 1494 1494 1493 1493 1493 1493
1490 1494 1498 1502 1506 1509 1511 1513 1514 1515 1516 1516 1516 1516 1515 1514 1514 1513 1512 1511 1510 1509 1507 1506 1505 1503 1502 1500 1499 1497 1496 1495 1493 1492 1491 1490 1489 1488 1488 1488 1487 1488 1487
1488 1492 1496 1500 1503 1506 1508 1510 1511 1512 1513 1513 1513 1513 1512 1512 1511 1510 1509 1508 1507 1506 1504 1503 1501 1499 1498 1496 1495 1493 1492 1490 1488 1486 1485 1484 1483 1483 1482 1482 1482 1482 1482
1487 1491 1494 1497 1500 1503 1505 1507 1508 1509 1509 1509 1510 1510 1509 1508 1508 1507 1506 1505 1503 1502 1501 1499 1497 1495 1494 1493 1490 1488 1486 1484 1482 1480 1478 1478 1477 1476 1476 1476 1475 1476 1476
1484 1488 1491 1494 1497 1499 1502 1503 1504 1505 1506 1506 1506 1506 1506 1505 1505 1504 1503 1501 1500 1498 1496 1494 1493 1491 1489 1487 1485 1483 1480 1478 1475 1473 1472 1471 1471 1471 1470 1469 1468 1468 1469
1481 1484 1488 1491 1493 1496 1498 1499 1501 1501 1502 1503 1503 1503 1502 1502 1501 1500 1499 1497 1496 1494 1492 1490 1488 1486 1484 1482 1480 1477 1475 1472 1470 1468 1466 1465 1464 1464 1464 1463 1462 1461 1461
1479 1481 1484 1487 1489 1491 1493 1495 1497 1498 1498 1499 1499 1499 1498 1498 1497 1495 1494 1493 1491 1489 1488 1486 1484 1482 1480 1478 1475 1472 1469 1467 1465 1463 1462 1461 1459 1458 1457 1456 1455 1454 1454
1476 1478 1481 1483 1485 1487 1489 1491 1492 1494 1494 1495 1495 1495 1494 1493 1492 1491 1490 1488 1486 1485 1483 1481 1479 1477 1475 1473 1470 1468 1465 1462 1460 1458 1457 1456 1454 1452 1451 1450 1449 1447 1447
1473 1475 1478 1480 1481 1483 1485 1486 1488 1489 1490 1490 1490 1490 1489 1488 1487 1486 1485 1483 1481 1480 1478 1476 1474 1472 1469 1467 1465 1462 1460 1458 1455 1453 1451 1450 1448 1446 1445 1444 1442 1441 1441
1470 1472 1474 1476 1478 1479 1480 1482 1483 1485 1486 1486 1485 1485 1484 1484 1483 1482 1480 1478 1477 1474 1473 1471 1469 1467 1464 1462 1459 1457 1455 1453 1450 1447 1446 1444 1442 1440 1438 1437 1436 1435 1434
1467 1469 1470 1472 1474 1475 1476 1478 1479 1481 1481 1481 1481 1480 1479 1479 1478 1477 1475 1473 1472 1470 1468 1467 1465 1462 1460 1458 1455 1452 1449 1447 1444 1442 1440 1438 1436 1434 1432 1430 1429 1428 1426
1465 1466 1467 1469 1470 1471 1473 1473 1475 1475 1476 1476 1475 1475 1474 1473 1472 1471 1470 1469 1467 1466 1464 1462 1459 1457 1455 1453 1449 1446 1444 1441 1438 1436 1433 1431 1429 1427 1425 1424 1422 1421 1419
1464 1464 1466 1466 1468 1469 1469 1470 1470 1471 1471 1471 1470 1469 1468 1467 1466 1465 1463 1462 1460 1459 1458 1455 1453 1451 1449 1447 1445 1442 1438 1435 1433 1430 1427 1425 1423 1421 1419 1417 1416 1415 1413
1464 1464 1464 1465 1466 1466 1466 1467 1467 1467 1467 1466 1465 1463 1462 1461 1460 1458 1457 1455 1454 1452 1450 1448 1447 1444 1442 1440 1438 1435 1432 1429 1426 1424 1421 1419 1417 1415 1414 1412 1410 1409 1408